Location: Home AU
(51.1382°N, 13.5726°E)
Time: 15:13:00
(UTC+01:00)

ISS - Pass Details

Date: 11 January 2018
Orbit: 402 x 407 km, 51.6° (Epoch: 21 January)

Event Time Altitude Azimuth Distance (km) Brightness Sun altitude
Exits shadow 07:13:43 - 268° (W) 1,594 -1.4 -7.9°
Reaches altitude 10° 07:14:08 10° 263° (W) 1,467 -1.5 -7.9°
Maximum altitude 07:16:30 19° 217° (SW) 1,057 -1.8 -7.5°
Drops below altitude 10° 07:18:52 10° 171° (S) 1,462 -0.5 -7.2°
Sets 07:21:20 0° 152° (SSE) 2,319 1.0 -6.9°
